Location: Tel Aviv
(32.0670°N, 34.7670°E)
Time: 14:09:56
(UTC+03:00)

Explorer 11/Cluster Stage 4 - Pass Details

Date: 15 September 2024
Orbit: 464 x 1208 km, 28.8° (Epoch: 06 October)

Event Time Altitude Azimuth Distance (km) Brightness Sun altitude
Rises 06:39:40 0° 236° (SW) 3,433 9.3 2.3°
Reaches altitude 10° 06:42:09 10° 230° (SW) 2,608 8.8 2.8°
Maximum altitude 06:48:13 44° 160° (SSE) 1,413 8.2 4.1°
Drops below altitude 10° 06:55:19 10° 91° (E) 3,048 12.8 5.6°
Sets 06:58:26 0° 86° (E) 4,066 12.9 6.2°
